[Iaude] MPEC E31: 2024 EQ [a=1.65,e=0.46,i=4.0,H=25.8]
    mpec at cfa.harvard.edu 
    mpec at cfa.harvard.edu
       
    Mon Mar  4 06:49:26 EST 2024
    
    
  
M.P.E.C. 2024-E31                                 Issued 2024 March 4, 11:47 UT
     The Minor Planet Electronic Circulars contain information on unusual
         minor planets, routine data on comets and natural satellites,
         and occasional editorial announcements.  They are published
    on behalf of Division F of the International Astronomical Union by the
          Minor Planet Center, Smithsonian Astrophysical Observatory,
                          Cambridge, MA 02138, U.S.A.
			  
             Prepared using the Tamkin Foundation Computer Network
                              MPC at CFA.HARVARD.EDU
            URL https://www.minorplanetcenter.net/    ISSN 1523-6714
                                    2024 EQ                                     
Observations:
     K24E00Q* C2024 03 02.54502911 29 03.935+25 33 27.93         21.49wXEE031F52
     K24E00Q  C2024 03 02.55680311 29 06.077+25 33 38.78         21.70wXEE031F52
     K24E00Q  C2024 03 02.56863511 29 08.254+25 33 49.20         22.14wXEE031F52
     K24E00Q KC2024 03 03.21550811 31 46.657+25 44 53.05         21.21GVEE031I52
     K24E00Q KC2024 03 03.22204011 31 48.047+25 45 01.58         20.94GVEE031I52
     K24E00Q KC2024 03 03.22512711 31 48.727+25 45 05.72         21.42GVEE031I52
     K24E00Q KC2024 03 03.22821411 31 49.393+25 45 09.47         21.61GVEE031I52
     K24E00Q KC2024 03 03.27211511 31 56.01 +25 45 54.2          21.3 GVEE031H21
     K24E00Q KC2024 03 03.27770911 31 57.17 +25 46 00.1          21.3 GVEE031H21
     K24E00Q KC2024 03 03.28050511 31 57.76 +25 46 03.1          21.5 GVEE031H21
     K24E00Q KC2024 03 03.28227711 31 58.11 +25 46 05.1          21.3 GVEE031H21
     K24E00Q  C2024 03 03.55494811 33 02.449+25 51 36.29         21.44GVEE031F52
     K24E00Q  C2024 03 03.55576911 33 02.673+25 51 37.15         21.31GVEE031F52
     K24E00Q  C2024 03 04.36990311 36 46.097+26 07 07.19         20.9 GVEE031H01
     K24E00Q  C2024 03 04.37427111 36 47.141+26 07 12.24         20.8 GVEE031H01
     K24E00Q  C2024 03 04.37933411 36 48.400+26 07 17.94         20.7 GVEE031H01
     K24E00Q  C2024 03 04.38444811 36 49.692+26 07 23.80         20.8 GVEE031H01
Observer details:
F52 Pan-STARRS 2, Haleakala.  Observers J. Herman, T. Lowe, P. Minguez, A.
    Schultz, I. Smith.  Measurers K. Chambers, T. de Boer, J. Fairlamb, H.
    Gao, M. Huber, C.-C. Lin, E. Magnier, Y. Ramanjooloo, R. Wainscoat, R.
    Weryk.  1.8-m Ritchey-Chretien + CCD.
H01 Magdalena Ridge Observatory, Socorro.  Observers W. H. Ryan, E. V. Ryan.
    Measurer W. H. Ryan.  2.4-m f/8.9 Ritchey-Chretien + CCD.
H21 Astronomical Research Observatory, Westfield.  Observer R. Holmes.
    Measurers T. Linder, R. Holmes, L. Horn.  0.76-m f/3.0 astrograph + CCD.
I52 Steward Observatory, Mt. Lemmon Station.  Observers T. Beuden, J. K.
    Hogan.  Measurers T. Beuden, V. F. Carvajal, D. Fay, J. B. Fazekas, D. C.
    Fuls, A. R. Gibbs, A. D. Grauer, H. Groeller, J. K. Hogan, R. A. Kowalski,
    S. M. Larson, G. J. Leonard, D. Rankin, R. L. Seaman, F. C. Shelly, K. W.
    Wierzchos.  1.0-m prime focus + CCD.
Orbital elements:
2024 EQ                                                  Earth MOID = 0.0108 AU
Epoch 2024 Mar. 31.0 TT = JDT 2460400.5                 Veres                   
M 350.01482              (2000.0)            P               Q                  
n   0.46423547     Peri.  217.34192     -0.72304955     +0.69075307             
a   1.6518750      Node     6.36477     -0.61581215     -0.63946249             
e   0.4566701      Incl.    3.99168     -0.31300918     -0.33756174             
P   2.12           H   25.83          G   0.15           U   8                  
Residuals in seconds of arc
240302 F52  0.0   0.1+    240303 I52  0.1+  0.0     240303 F52  0.2+  0.0
240302 F52  0.1-  0.3+    240303 H21  0.0   0.2+    240304 H01  0.2+  0.0
240302 F52  0.2-  0.1+    240303 H21  0.1+  0.1-    240304 H01  0.2-  0.0
240303 I52  0.4-  0.4-    240303 H21  0.3+  0.1-    240304 H01  0.1-  0.0
240303 I52  0.4-  0.1-    240303 H21  0.0   0.0     240304 H01  0.2+  0.1+
240303 I52  0.0   0.1+    240303 F52  0.5-  0.0
Ephemeris:
2024 EQ                  a,e,i = 1.65, 0.46, 4                   q = 0.8975
Date    TT    R. A. (2000) Decl.     Delta      r    Elong.  Phase     V
2024 02 03    10 49 06.5 +21 07 03   0.2986  1.2618   154.6    19.6    24.7
...
2024 02 18    11 02 55.7 +22 52 02   0.1797  1.1604   162.0    15.3    23.3
...
2024 02 26    11 14 24.4 +24 14 04   0.1242  1.1086   162.0    16.1    22.4
...
2024 03 03    11 30 50.4 +25 41 23   0.08521 1.0715   159.4    19.0    21.6
2024 03 04    11 35 03.6 +26 00 03   0.07893 1.0655   158.7    19.8    21.4
2024 03 05    11 39 59.7 +26 20 29   0.07272 1.0596   157.9    20.6    21.3
...
2024 03 11    12 44 09.6 +29 12 37   0.03728 1.0254   148.4    30.5    20.1
...
2024 03 19    19 48 12.5 -01 46 06   0.02443 0.9842    61.6   117.1    22.4
...
2024 04 03    22 10 04.0 -18 39 24   0.1120  0.9255    46.0   129.1    26.5
M. P. C. Staff               (C) Copyright 2024 MPC           M.P.E.C. 2024-E31
    
    
More information about the Iaude
mailing list